IRIDIUM 164 (43577 NORAD) Tracking and Keplerian Element Data

This shows tracking and keplerian element data for the satellite.

Feedback or suggestion? Click here.




ElementValue
Catalog43577
NameIRIDIUM 164
Epoch Orbit426
Epoch Day235.59499893
Epoch Year2018
RAAN169.6814
Inclination86.507
Eccentricity0.0002036
Argument of Perigee109.1891
Mean Anonmoly250.9536
Mean Motion14.53542189
Decay Rate5.7E-07
L11 43577U 18061J 18235.59499893 .00000057 00000-0 85892-5 0 9996
L22 43577 86.5070 169.6814 0002036 109.1891 250.9536 14.53542189 4263

Live tracking and technical data element details for IRIDIUM 164 (NORAD 43577). IRIDIUM 164 can be tracked NOW for your location showing map with azimuth and elevation plus other details from your city location.

Track the satellite on the map from your city or location and see movement details for azimuth, elevation, latitude, longitude, range, height, and movement on the map or in text.







IsCatalogInMostPopularTable: catalog: 43577, numindb: 36
Update: records affected: 1



GetName: 43577 IRIDIUM 164

Hit Count: updated at: Tue, 13 Nov 2018 07:31:58 GMT